Hourly Data Report for June 14, 2021

OTTAWA INTL A
ONTARIO
Current Station Operator: NAVCAN

45°19'00.000" N
75°40'00.000" W
114.90 m
6106001
71628
YOW

Download Data

Hourly Data (June 2021)
Hourly Data Report for June 14, 2021
TIME
LST
Temp Definition
°C
Dew Point Definition
°C
Rel Hum Definition
%
Precip. Amount Definition
mm

Wind Dir Definition
10's deg

Wind Spd Definition
km/h
Visibility Definition
km
Stn Press Definition
kPa
Hmdx Definition


Wind Chill Definition


Weather Definition


00:00 17.6 15.8 89   10 14 24.1 99.29     LegendNANA
01:00 17.2 15.2 88   15 11 24.1 99.32     Cloudy
02:00 17.4 15.1 86   14 17 24.1 99.32     LegendNANA
03:00 17.4 15.6 89   16 10 24.1 99.32     Thunderstorms
04:00 16.9 15.8 93   15 11 24.1 99.28     Mostly Cloudy
05:00 16.8 15.9 94   16 8 24.1 99.27     LegendNANA
06:00 16.9 15.9 94   17 8 24.1 99.31     LegendNANA
07:00 19.4 15.8 80   18 14 24.1 99.30     Mostly Cloudy
08:00 18.7 16.5 87   18 9 24.1 99.31     LegendNANA
09:00 19.8 16.7 82   18 13 24.1 99.28     LegendNANA
10:00 20.6 16.7 78   15 8 24.1 99.28 26   Mostly Cloudy
11:00 23.0 18.0 73   16 14 24.1 99.26 29   LegendNANA
12:00 23.0 17.1 69   16 11 24.1 99.21 28   LegendNANA
13:00 21.9 17.2 74   17 8 24.1 99.15 27   Mostly Cloudy
14:00 21.1 16.7 76   27 6 24.1 99.15 26   Thunderstorms,Rain Showers
15:00 17.8 17.1 96   21 10 16.1 99.18     Rain Showers
16:00 18.3 16.3 88   27 18 24.1 99.25     Thunderstorms,Rain Showers
17:00 19.1 16.7 85   32 10 24.1 99.21     LegendNANA
18:00 17.5 16.1 91   36 2 24.1 99.23     LegendNANA
19:00 17.7 16.4 92   11 4 24.1 99.24     Cloudy
20:00 17.2 16.6 96   17 7 24.1 99.26     LegendNANA
21:00 17.2 16.5 95   25 12 16.1 99.30     Rain Showers
22:00 16.2 15.6 96   17 8 24.1 99.30     Rain
23:00 16.4 16.0 97   16 6 16.1 99.29     LegendNANA

Notes on Data Quality.

Legend

  • E = Estimated
  • M = Missing
  • NA = Not Available*
  • [empty] = Indicates an unobserved value
Date modified: